Weather in Krivoe Ozero

Ukraine / Mykolaiv District     47˚56′42″N   30˚21′09″E
temp.,
°C
wind,
m/s
gust,
m/s
humid.,
%
clouds,
%
prec.,
mm/h
press.,
hPa
HPBL,
m
1 december, tue
tue123:00−1˚n61197100 2.2 1026557
02:00−1˚n61096100 3.3 1026519
05:00−1˚n61096100 0.4 1025538
08:00−1˚nne61096100 1.4 1025528
11:00nne589899 0.5 1025433
14:00n5898100 1.6 1024426
17:00nne4797100 0.5 1024343
20:00+1˚ne36100100 0.7 1024257
2 december, wed
wed223:00+1˚ne24100100 0.0 1025154
02:00+1˚ne24100100 0.1 1025155
05:00+1˚ne23100100 0.4 1025144
08:00+1˚ene24100100 0.4 1025140
11:00+1˚n33100100 0.2 102597
14:00+1˚n23100100 0.7 102563
17:00+2˚nne23100100 0.3 102458
20:00+2˚ese23100100 0.6 102473
3 december, thu
thu323:00+2˚s22100100 0.0 102553
02:00+1˚s239999 0.0 102569
05:00+1˚s2297100 0.0 102484
08:00+1˚s249397 0.0 1025193
11:00+1˚s3492100 0.0 1025346
14:00+1˚sse349175 0.0 1024292
17:00+1˚ese359241 0.0 1023170
20:00+2˚se478970 0.0 1023214
4 december, fri
fri423:00+2˚se4888100 0.0 1023231
02:00+3˚se4985100 0.0 1022244
05:00+2˚se51095100 0.0 1022297
08:00+1˚ese5129490 0.0 1022305
11:00+3˚ese6108645 0.0 1022382
14:00+6˚se6108222 0.0 1020489
17:00+3˚ese6119351 0.0 1020349
20:00+4˚ese7109675 0.0 1020449
5 december, sat
sat523:00+4˚se61193100 0.0 1020475
02:00+4˚se61094100 0.0 1020431
05:00+4˚ese71295100 0.0 1019396
08:00+4˚se71393100 0.0 1020427
11:00+5˚se71289100 0.0 1021457
14:00+7˚se7128099 0.0 1021480
17:00+5˚ese7138590 0.0 1021427
20:00+4˚se8158685 0.0 1022425